#timestamp,LO_Frequency,Hit,StdDev 
1510207215.3,286047001.9,N
1510207235.2,286047001.6,N
1510207255.9,286047001.9,N
1510207275.7,286046998.1,N
1510207295.6,286047002.7,N
1510207315.4,286047002.9,N
1510207335.2,286047001.9,N
1510207355.1,286047007.6,Y
1510207356.0,286047007.6,P
1510207375.8,286047001.7,N
1510207395.6,286047001.2,N
1510207415.5,286047001.5,N
1510207435.3,286047001.4,N
1510207455.1,286046999.7,N
1510207475.9,286047006.0,N
1510207495.7,286047001.8,N
1510207515.5,286047004.4,N
1510207535.3,286047004.5,N
1510207555.2,286047006.9,Y
1510207575.0,286047005.7,P
1510207575.9,286047005.7,P
1510207595.8,286047009.0,P
1510207615.6,286047010.4,Y
1510207635.4,286047000.2,P
1510207655.3,286046998.4,N
1510207675.1,286046995.0,N
1510207676.0,286046995.0,N
1510207695.8,286046995.6,N
1510207715.7,286047000.8,N
1510207735.5,286047000.6,N
1510207755.3,286047000.6,N
1510207775.1,286046997.2,N
1510207795.9,286046999.9,N
1510207815.7,286047004.2,N
1510207835.5,286047001.8,N
1510207855.4,286047005.8,N
1510207875.2,286047004.8,N
1510207895.0,286047003.2,N
1510207895.9,286047003.2,N
1510207915.8,286047003.5,N
1510207935.6,286047000.1,N
1510207955.4,286047001.3,N
1510207975.3,286047005.8,N
1510207995.1,286047004.4,N
1510207996.0,286047004.4,N
1510208015.8,286047003.8,N
1510208035.7,286047003.4,N
1510208055.5,286047003.9,N
1510208075.3,286047003.4,N
1510208095.1,286047005.1,N
1510208115.9,286047005.9,N
1510208135.7,286047007.4,N
1510208155.5,286047005.3,N
1510208175.4,286047007.3,N
1510208195.2,286047007.8,N
1510208215.0,286047011.2,Y
1510208215.9,286047011.2,P
1510208235.8,286047006.6,N
1510208255.6,286047005.1,N
1510208275.4,286047006.2,N
1510208295.3,286047008.7,Y
1510208315.1,286047000.8,P
1510208335.8,286047002.8,N
1510208355.7,286047001.3,N
1510208375.5,286047004.1,N
1510208395.3,286047002.1,N
1510208415.2,286047001.2,N
1510208435.9,286047000.9,N
1510208455.7,286047002.2,N
1510208475.6,286047002.7,N
1510208495.4,286047002.0,N
1510208515.2,286047004.4,N
1510208535.0,286047002.3,N
1510208536.0,286047002.3,N
1510208555.8,286047002.8,N
1510208575.6,286046999.3,N
1510208595.4,286046999.7,N
1510208615.3,286047002.1,N
1510208635.1,286047004.1,N
1510208655.8,286047007.3,Y
1510208675.7,286047004.0,P
1510208695.5,286047003.9,P
1510208715.3,286047003.4,P
1510208735.2,286047004.7,Y
1510208755.0,286047001.3,P
1510208755.9,286047001.3,N
1510208775.7,286047001.6,N
1510208795.6,286047006.0,Y
1510208815.4,286046999.9,P
1510208835.2,286047000.4,N
1510208855.1,286047001.8,N
1510208856.0,286047001.8,N
1510208875.8,286047007.6,Y
1510208895.7,286047007.2,P
1510208915.5,286047004.9,N
1510208935.3,286047005.1,N
1510208955.1,286047006.1,N
1510208975.9,286047008.9,Y
1510208995.7,286047004.7,P
1510209015.6,286047005.8,P
1510209035.4,286047002.3,P
1510209055.2,286047002.2,N
1510209075.0,286047002.8,N
1510209075.9,286047002.8,N
1510209095.8,286047000.5,N
1510209115.6,286047000.9,N
1510209135.4,286046999.0,N
1510209155.3,286046999.6,N
1510209175.1,286046995.8,N
1510209195.8,286046997.1,N
1510209215.7,286046999.3,N
1510209235.5,286046997.1,N
1510209255.3,286047000.9,N
1510209275.2,286046999.7,N
1510209295.9,286047002.5,N
1510209315.7,286047002.5,N
1510209335.5,286047001.9,N
1510209355.4,286046999.7,N
1510209375.2,286047000.0,N
1510209395.0,286047001.5,N
1510209395.9,286047001.5,N
1510209415.8,286047000.6,N
1510209435.6,286046998.7,N
1510209455.4,286046998.2,N
1510209475.3,286046998.3,N
1510209495.1,286047000.5,N
1510209496.0,286047000.5,N
1510209515.8,286047001.8,N
1510209535.7,286047003.6,N
1510209555.5,286046999.8,N
1510209575.3,286046998.2,N
1510209595.2,286046998.4,N
1510209615.9,286047002.7,N
1510209635.7,286047002.2,N
1510209655.5,286046998.1,N
1510209675.4,286047002.4,N
1510209695.2,286046997.0,N
1510209715.0,286046995.1,N
1510209715.9,286046995.1,N
1510209735.8,286046997.8,N
1510209755.6,286046993.8,N
1510209775.4,286046992.3,Y
1510209795.3,286046991.0,P
1510209815.1,286046988.6,N
1510209835.8,286046991.0,N
1510209855.7,286046992.8,N
1510209875.5,286046992.9,N
1510209895.3,286046992.6,N
1510209915.2,286046989.0,Y
1510209935.9,286046995.6,P
1510209955.7,286046995.2,P
1510209975.6,286046996.1,P
1510209995.4,286046992.2,Y
1510210015.2,286046997.2,P
1510210035.1,286046999.1,N
1510210036.0,286046999.1,N
1510210055.8,286047002.5,N
1510210075.6,286047001.3,N
1510210095.5,286047003.1,N
1510210115.3,286047003.1,N
1510210135.1,286047007.5,N
1510210155.9,286047003.7,N
1510210175.7,286047004.8,N
1510210195.5,286047005.8,N
1510210215.3,286047005.0,N
1510210235.2,286047008.8,N
1510210255.0,286047006.5,N
1510210255.9,286047006.5,N
1510210275.7,286047004.5,N
1510210295.6,286047007.2,N
1510210315.4,286047004.8,N
1510210335.2,286047005.8,N
1510210355.1,286047005.4,N
1510210356.0,286047005.4,N
1510210375.8,286047005.1,N
1510210395.6,286047004.2,N
1510210415.5,286047005.5,N
1510210435.3,286047007.4,N
1510210455.1,286047005.3,N
1510210475.9,286047005.0,N
1510210495.7,286047007.3,N
1510210515.5,286047010.2,Y
1510210535.4,286047003.3,P
1510210555.2,286047006.0,P
1510210575.0,286047006.5,P
1510210575.9,286047006.5,Y
1510210595.8,286047000.3,P
1510210615.6,286047004.4,N
1510210635.4,286047005.6,N
1510210655.3,286047004.6,N
1510210675.1,286047006.0,Y
1510210676.0,286047006.0,P
1510210695.8,286047000.9,N
1510210715.7,286046998.1,N
1510210735.5,286047000.3,N
1510210755.3,286046997.9,N
1510210775.2,286046995.1,N
1510210795.9,286046994.4,N
